This is the latest recevied weather packets stored in our database for station/object SV3AQT-13. If no packets are shown the sender has not sent any weather packets the latest 10 day(s).
| Time | Temp. | Humidity | Pressure | Rain* | Wind** | Luminosity | Snow |
|---|---|---|---|---|---|---|---|
| 1788464800 | 23.89° C | 74% | 1016.2 hPa | 0 mm | 0 m/s | - | - |
| 1788464200 | 23.89° C | 75% | 1016.2 hPa | 0 mm | 0 m/s | - | - |
| 1788463601 | 24.44° C | 74% | 1016.2 hPa | 0 mm | 0 m/s | - | - |
| 1788463002 | 24.44° C | 74% | 1016.2 hPa | 0 mm | 0 m/s | - | - |
| 1788462400 | 24.44° C | 76% | 1015.9 hPa | 0 mm | 0 m/s | - | - |
| 1788461801 | 23.89° C | 79% | 1015.2 hPa | 0 mm | 0 m/s | - | - |
| 1788461201 | 23.89° C | 77% | 1015.2 hPa | 0 mm | 0 m/s | - | - |
| 1788460599 | 24.44° C | 76% | 1015.2 hPa | 0 mm | 0 m/s | - | - |
| 1788460000 | 25° C | 75% | 1014.9 hPa | 0 mm | 0 m/s | - | - |
| 1788459401 | 25° C | 76% | 1014.9 hPa | 0 mm | 0 m/s | - | - |
| 1788458800 | 25.56° C | 78% | 1014.9 hPa | 0 mm | 0 m/s | - | - |
| 1788458199 | 25.56° C | 78% | 1014.5 hPa | 0 mm | 0 m/s | - | - |
| 1788457602 | 26.67° C | 77% | 1014.5 hPa | 0 mm | 0 m/s | - | - |
| 1788456999 | 27.22° C | 76% | 1014.2 hPa | 0 mm | 0 m/s | - | - |
| 1788456407 | 28.33° C | 74% | 1014.2 hPa | 0 mm | 0 m/s | - | - |
| 1788455799 | 28.33° C | 76% | 1014.2 hPa | 0 mm | 0 m/s | - | - |
| 1788455200 | 28.33° C | 78% | 1014.2 hPa | 0 mm | 0.89 m/s, 71° | - | - |
| 1788454600 | 28.33° C | 75% | 1014.2 hPa | 0 mm | 0 m/s | - | - |
| 1788453999 | 28.89° C | 62% | 1014.2 hPa | 0 mm | 0 m/s | - | - |
| 1788453410 | 28.89° C | 74% | 1014.2 hPa | 0 mm | 0.45 m/s, 75° | - | - |
| 1788452799 | 28.89° C | 69% | 1014.2 hPa | 0 mm | 0 m/s | - | - |
| 1788452199 | 30° C | 62% | 1014.2 hPa | 0 mm | 0 m/s | - | - |
| 1788451599 | 30.56° C | 56% | 1014.2 hPa | 0 mm | 0 m/s | - | - |
| 1788450999 | 30.56° C | 52% | 1014.2 hPa | 0 mm | 0 m/s | - | - |
| 1788450400 | 30.56° C | 53% | 1014.5 hPa | 0 mm | 0 m/s | - | - |
* Rain latest hour (hover to see other rain measurements)
** Current wind speed in m/s (hover to see current wind gust speed)